Home > Time Zones > World Clock > Weather > Japan > Tsu > Past weeks

Flag for Japan Weather past 2 weeks in Tsu, Japan

Now
38 °F

Chilly.


Feels Like: 31 °F
Forecast: 39 / 46 °F
Wind: 10 mph from Northwest

Location: Tsu

Current Time: Dec 26, 2014 at 7:12:10 AM

Latest Report: Dec 26, 2014 at 5:00 AM


Visibility: N/A

Pressure: 30.16 "Hg

Humidity: 82%

Dew point: 33 °F

Location of TsuLocation

Historic Weather in Tsu — Graph

°F

Tsu temperature yesterday

Maximum temperature yesterday: 48 °F (at 2:00 AM)
Minimum temperature yesterday: 41 °F (at 7:00 PM)
Average temperature yesterday: 45 °F

Past Weeks' High & Low Weather Summary

 TemperatureHumidityPressure
High53 °F (Dec 11, 1:00 PM)94% (Dec 20, 5:00 PM)30.52 "Hg (Dec 20, 5:00 PM)
Low33 °F (Dec 18, 1:00 AM)25% (Dec 17, 12:00 PM)29.57 "Hg (Dec 16, 4:00 PM)
Average42 °F60%30.07 "Hg
* Reported Dec 11 5:00 AM — Dec 26 5:00 AM, Tsu, Weather by CustomWeather, © 2014

Note: Actual official high and low records may vary slightly from our data, if they occured in-between our weather recording intervals... More about our weather records

Advertising

Tsu weather history for previous 24 hours

 ConditionsComfort  
Time TempWeatherWind HumidityBarometerVisibility
5:00 AM
Dec 26
38 °FChilly.10 mph82%30.16 "HgN/A
4:00 AM38 °FChilly.10 mph80%30.15 "HgN/A
3:00 AM39 °FChilly.13 mph76%30.14 "HgN/A
2:00 AM40 °FQuite cool.13 mph76%30.13 "HgN/A
1:00 AM42 °FQuite cool.14 mph58%30.09 "HgN/A
12:00 AM42 °FQuite cool.14 mph63%30.10 "HgN/A
11:00 PM
Dec 25
42 °FQuite cool.12 mph69%30.09 "HgN/A
10:00 PM42 °FQuite cool.8 mph71%30.09 "HgN/A
9:00 PM42 °FSprinkles. Overcast.6 mph72%30.08 "Hg12 mi
8:00 PM42 °FQuite cool.7 mph71%30.07 "HgN/A
7:00 PM41 °FQuite cool.5 mph73%30.06 "HgN/A
6:00 PM42 °FQuite cool.6 mph73%30.07 "HgN/A
5:00 PM42 °FQuite cool.6 mph67%30.05 "HgN/A
4:00 PM43 °FQuite cool.12 mph63%30.04 "HgN/A
3:00 PM45 °FPartly sunny.13 mph58%30.03 "Hg9 mi
2:00 PM47 °FCool.12 mph57%30.01 "HgN/A
1:00 PM44 °FQuite cool.13 mph63%30.01 "HgN/A
11:00 AM47 °FCool.12 mph57%30.04 "HgN/A
10:00 AM47 °FCool.12 mph60%30.06 "HgN/A
9:00 AM44 °FOvercast.12 mph70%30.05 "Hg16 mi
8:00 AM47 °FCool.13 mph60%30.02 "HgN/A
7:00 AM43 °FQuite cool.6 mph72%30.01 "HgN/A
Weather by CustomWeather, © 2014

See weather overviewHow to use our weather pages